Weather History for Crossville, TN

Change the Weather History Date:

Friday, December 28, 2012

  Actual Average Record
Temperature  
Mean Temperature 34 °F 36 °F  
Max Temperature 39 °F 45 °F 70 °F (1984)
Min Temperature 28 °F 28 °F 6 °F (1977)
Degree Days  
Heating Degree Days 32    
Month to date heating degree days  
Since 1 July heating degree days  
Cooling Degree Days 0    
Month to date cooling degree days  
Year to date cooling degree days  
Moisture  
Dew Point 30 °F    
Average Humidity 84    
Maximum Humidity 93    
Minimum Humidity 73    
Precipitation  
Precipitation 0.09 in 0.15 in 3.27 in (1954)
Month to date precipitation 4.52  
Year to date precipitation 54.66  
Sea Level Pressure  
Sea Level Pressure 29.97 in    
Wind  
Wind Speed 4 mph (SE)    
Max Wind Speed 16 mph    
Max Gust Speed 30 mph    
Visibility 10 miles    
Events Rain    
T = Trace of Precipitation, MM = Missing Value Source: NWS Daily Summary

Daily Weather History Graph

Daily Weather History Graph

Search for Another Location

Airport:

Trip Planner

Search our weather history database for the weather conditions in past years. The results will help you decide how hot, cold, wet, or windy it might be!

Date:

Astronomy

Dec. 28, 2012 Rise Set
Actual Time 6:49 AM CST 4:34 PM CST
Civil Twilight 6:21 AM CST 5:03 PM CST
Nautical Twilight 5:49 AM CST 5:35 PM CST
Astronomical Twilight 5:18 AM CST 6:06 PM CST
Moon 5:08 PM CST (12/28) 6:45 AM CST (12/28)
Length of Visible Light 10h 41m
Length of Day
9h 44m
Full, 100% of the Moon is Illuminated
Dec 28
Full
Jan 4
Last Quarter
Jan 11
New
Jan 18
First Quarter
Jan 26
Full

Hourly Weather History & Observations

Time (CST) Temp. Windchill Dew Point Humidity Pressure Visibility Wind Dir Wind Speed Gust Speed Precip Events Conditions
12:53 AM 28.0 °F 22.8 °F 26.1 °F 92% 30.10 in 10.0 mi East 4.6 mph - N/A   Overcast
1:53 AM 28.0 °F 21.7 °F 26.1 °F 92% 30.09 in 10.0 mi East 5.8 mph - N/A   Overcast
2:53 AM 28.0 °F 24.2 °F 26.1 °F 92% 30.09 in 10.0 mi East 3.5 mph - N/A   Mostly Cloudy
3:24 AM 28.4 °F 24.6 °F 26.6 °F 93% 30.04 in 10.0 mi Variable 3.5 mph - N/A   Scattered Clouds
3:53 AM 28.0 °F 22.8 °F 26.1 °F 92% 30.08 in 9.0 mi East 4.6 mph - N/A   Partly Cloudy
5:53 AM 28.9 °F 25.2 °F 26.1 °F 89% 30.06 in 10.0 mi Variable 3.5 mph - N/A   Overcast
6:53 AM 28.9 °F - 27.0 °F 92% 30.07 in 10.0 mi Calm Calm - N/A   Overcast
7:53 AM 30.0 °F - 27.0 °F 88% 30.10 in 10.0 mi Calm Calm - N/A   Overcast
8:53 AM 32.0 °F 28.7 °F 28.0 °F 85% 30.12 in 10.0 mi South 3.5 mph - N/A   Overcast
9:53 AM 35.1 °F 32.2 °F 28.0 °F 76% 30.11 in 10.0 mi South 3.5 mph - N/A   Partly Cloudy
10:53 AM 37.0 °F - 28.9 °F 73% 30.07 in 10.0 mi Calm Calm - N/A   Overcast
12:53 PM 37.9 °F 34.4 °F 30.0 °F 73% 29.98 in 10.0 mi SE 4.6 mph - N/A   Mostly Cloudy
1:53 PM 37.9 °F 35.5 °F 30.9 °F 76% 29.97 in 10.0 mi SSE 3.5 mph - N/A   Overcast
2:53 PM 37.9 °F 33.5 °F 30.9 °F 76% 29.95 in 10.0 mi SSE 5.8 mph - 0.00 in   Overcast
3:53 PM 37.9 °F - 32.0 °F 79% 29.95 in 10.0 mi Calm Calm - 0.00 in Rain Light Rain
4:53 PM 36.0 °F - 34.0 °F 93% 29.95 in 5.0 mi Calm Calm - 0.02 in   Overcast
5:53 PM 36.0 °F - 33.1 °F 89% 29.89 in 10.0 mi Calm Calm - 0.02 in   Overcast
7:09 PM 37.4 °F 32.8 °F 32.0 °F 81% 29.82 in 10.0 mi SSE 5.8 mph - N/A   Overcast
7:53 PM 37.9 °F 32.1 °F 30.9 °F 76% 29.81 in 10.0 mi SSE 8.1 mph 17.3 mph N/A   Overcast
8:53 PM 37.9 °F 30.0 °F 30.9 °F 76% 29.80 in 10.0 mi South 12.7 mph 21.9 mph 0.01 in   Overcast
9:53 PM 37.9 °F 29.2 °F 34.0 °F 86% 29.74 in 9.0 mi SSE 15.0 mph 26.5 mph 0.03 in Rain Light Rain
10:53 PM 39.0 °F 30.3 °F 34.0 °F 82% 29.73 in 10.0 mi SSE 16.1 mph 29.9 mph 0.01 in   Overcast
11:53 PM 37.9 °F 30.9 °F 34.0 °F 86% 29.76 in 10.0 mi SW 10.4 mph 17.3 mph 0.00 in Rain Light Rain